Wind_Speed
9 9 8 8 9 9 9 9 10 10 9 9 9 8 7 6 6 5 4 4 4 3 3 2 2 2 3 3 4 4 4 5 5 5 6 7 7 8 9 9 10 10 11
7 8 8 8 8 8 9 8 9 9 9 9 10 9 8 7 6 5 5 4 4 3 3 2 2 3 3 4 5 5 5 6 6 7 7 8 8 8 9 10 10 11 12
6 6 7 7 7 7 7 8 8 8 8 9 9 8 7 6 5 5 4 4 3 3 2 1 2 3 4 5 5 6 7 7 7 8 8 9 9 10 10 11 12 12 13
4 5 6 6 6 6 7 7 8 8 8 7 7 7 7 6 5 4 3 3 3 3 2 2 2 3 5 5 6 7 8 8 8 9 9 10 10 10 11 12 12 13 13
2 3 4 4 4 4 5 6 6 6 7 7 7 7 7 6 5 4 4 4 3 3 2 3 3 5 6 6 7 8 9 9 9 10 10 11 11 12 12 12 13 13 14
1 2 1 2 2 3 4 4 4 5 5 5 5 6 6 5 4 4 3 3 3 3 3 4 5 6 6 7 8 9 10 10 10 11 11 12 12 13 13 13 14 14 14
1 0 0 0 1 1 2 2 2 2 3 3 4 4 4 4 4 3 3 3 4 4 4 5 6 7 7 8 9 10 11 11 11 12 13 13 13 14 14 14 14 15 15
2 2 2 2 2 2 2 1 1 0 1 2 2 3 3 3 2 3 3 3 4 5 5 6 8 8 8 9 10 11 12 13 13 14 13 14 14 14 15 15 16 16 17
5 5 4 4 4 4 3 2 2 1 1 1 2 3 3 3 3 4 4 4 5 6 7 8 9 10 10 11 12 13 13 14 14 14 15 15 15 15 16 16 17 17 17
7 7 6 6 5 6 6 5 4 3 3 3 3 4 4 5 5 6 6 6 7 7 8 9 10 11 12 13 14 14 15 16 16 16 17 17 16 17 17 18 18 19 18
10 10 10 9 8 7 7 8 6 5 5 5 5 6 7 7 8 8 8 9 9 9 10 11 11 13 13 14 15 16 17 17 17 17 17 17 18 18 19 20 20 20 19
12 11 11 11 10 9 8 8 9 8 8 8 8 8 9 9 10 10 10 11 11 11 12 12 13 14 14 15 16 17 18 19 19 19 19 18 19 19 20 21 21 20 19
13 13 12 12 12 11 11 10 10 11 11 11 11 10 11 12 12 12 12 13 13 13 14 14 15 16 17 18 18 18 19 20 21 21 20 20 20 20 21 22 22 22 21
15 15 14 13 13 13 12 12 13 14 14 14 14 14 14 15 15 14 14 14 15 15 16 17 18 19 19 19 20 21 22 22 23 23 22 22 22 22 22 22 23 23 23
18 17 16 15 14 15 14 15 15 16 16 16 15 15 15 15 15 16 16 17 17 17 18 19 19 19 20 21 22 23 24 24 25 25 24 24 24 24 24 24 24 24 24
20 19 18 17 17 17 17 17 18 19 18 16 16 16 16 16 17 18 18 19 19 19 20 20 20 20 21 22 23 24 25 25 26 26 26 26 26 25 25 25 25 26 26
21 21 21 20 19 19 19 20 20 21 21 20 19 18 19 19 20 20 19 20 20 20 21 21 22 22 23 24 25 26 26 27 27 27 27 28 27 27 27 27 27 27 27
22 22 22 22 22 21 21 22 22 21 22 21 21 21 21 21 21 21 22 23 23 23 24 24 24 25 26 27 28 28 28 28 29 29 28 28 28 28 28 28 28 28 28
24 23 23 23 24 24 24 24 23 23 23 23 23 23 24 24 23 24 25 25 26 26 27 27 27 27 29 29 29 30 29 30 30 30 29 29 29 29 29 29 29 29 28
26 25 25 24 24 25 26 26 26 26 26 26 27 27 27 27 26 27 27 28 29 29 30 28 29 30 30 30 30 30 31 31 31 31 31 31 30 29 30 29 28 28 28
28 28 27 26 27 27 27 28 28 28 29 29 29 29 29 28 29 29 30 30 31 31 31 30 31 31 32 32 32 32 32 31 31 32 32 31 30 30 31 29 28 29 29
31 31 31 30 30 30 30 30 30 31 31 31 31 31 31 31 32 33 33 34 34 33 32 32 32 33 33 33 33 33 33 33 33 33 33 32 31 31 31 30 30 30 31
32 33 34 34 33 33 33 32 32 32 33 32 32 33 34 34 34 35 35 35 35 35 35 34 33 33 34 34 34 34 34 35 34 34 34 34 33 32 32 32 33 33 32
35 35 36 36 35 35 34 33 34 34 34 34 34 35 36 36 37 37 37 36 36 36 35 35 34 35 35 35 35 35 35 35 34 34 34 34 34 33 34 34 33 33 32
38 38 38 38 37 37 36 36 36 36 36 36 36 36 37 38 38 38 37 36 37 37 35 35 35 35 35 35 35 35 35 35 35 35 34 35 35 35 35 34 33 32 31
40 40 39 39 39 39 38 39 38 37 37 37 37 38 38 37 38 38 38 37 37 37 37 37 37 36 36 36 36 36 36 36 36 35 35 35 35 35 34 34 33 32 32
Wind_Direction
68 71 74 81 86 89 90 90 91 92 89 82 77 79 87 94 98 94 96 99 99 107 109 95 78 51 21 7 355 348 344 335 328 322 318 314 313 309 307 309 309 307 306
68 75 75 79 90 91 92 92 93 92 88 84 78 77 83 86 87 86 83 86 91 92 86 70 45 13 2 356 351 343 337 333 328 322 318 316 314 312 313 310 307 306 306
76 83 81 75 80 89 92 96 96 95 91 87 82 76 74 77 80 84 82 79 77 71 54 39 358 344 343 343 339 334 330 329 327 324 321 319 316 315 314 314 310 307 304
69 88 85 77 77 84 91 98 98 94 90 85 77 68 66 64 64 68 74 69 60 56 26 348 333 332 335 337 338 332 331 325 321 320 320 319 317 314 314 313 310 309 308
58 83 83 81 79 87 97 98 96 92 84 77 70 61 62 63 62 61 65 68 55 32 3 342 332 332 330 329 328 328 325 324 323 321 319 317 315 312 311 310 308 309 309
75 88 92 82 82 95 102 96 89 87 79 69 60 52 52 54 57 55 53 42 21 2 347 332 327 327 326 325 323 322 321 319 321 320 318 317 315 316 311 309 308 308 307
310 69 354 86 122 119 119 106 93 82 66 52 44 38 40 44 46 42 30 16 1 350 342 333 324 323 320 319 320 318 318 318 316 317 315 314 312 314 312 308 308 306 305
270 264 277 270 240 220 218 198 170 124 34 20 16 14 16 11 6 348 341 338 336 336 336 330 322 317 315 315 318 317 318 317 314 313 312 313 312 312 312 308 306 304 303
270 269 271 271 252 236 239 236 212 247 295 320 333 343 347 336 323 322 315 317 317 319 321 321 317 314 312 311 312 313 311 312 312 312 312 313 314 314 311 309 308 306 303
267 272 264 265 263 243 239 239 244 254 270 282 299 311 312 312 310 306 304 301 302 305 308 314 317 316 315 313 313 313 309 308 309 310 311 309 311 311 309 307 306 307 304
261 262 265 264 261 253 245 240 247 253 263 270 282 293 297 299 299 298 296 296 296 299 303 304 311 315 313 313 313 311 310 309 309 308 308 306 305 306 305 306 306 306 305
258 259 262 259 258 255 251 249 250 259 265 273 278 284 289 292 295 294 292 293 295 298 300 298 302 308 312 313 314 314 313 313 313 310 308 305 303 303 304 305 305 305 304
254 257 259 259 259 256 256 257 259 264 267 272 276 281 285 288 290 290 290 292 295 296 296 299 299 301 305 309 311 311 312 312 311 310 307 305 304 303 304 304 304 303 303
252 256 256 257 261 263 263 264 263 266 269 272 272 277 283 285 287 288 288 291 293 293 293 296 300 300 303 304 305 307 307 307 307 306 303 302 301 300 300 300 300 300 300
251 257 259 258 261 265 266 269 265 265 268 269 271 274 278 282 285 287 288 291 294 296 294 297 301 302 302 302 301 303 303 304 305 303 300 298 297 296 297 298 298 298 298
251 255 258 259 260 264 267 270 269 267 267 267 269 268 273 277 282 283 286 290 294 295 296 297 299 300 300 301 301 302 302 302 303 301 299 297 296 295 296 297 297 296 295
255 258 261 260 259 262 263 265 265 267 267 265 265 268 272 278 282 281 285 287 289 291 294 297 299 299 300 301 301 301 301 301 302 300 298 295 294 294 294 295 295 295 295
258 257 257 259 258 259 261 262 262 267 268 268 268 271 275 278 282 283 285 286 285 287 290 294 296 298 300 300 299 300 300 302 302 301 297 294 294 294 293 293 293 294 293
260 262 261 262 260 260 262 264 267 270 273 273 273 273 274 276 279 285 287 286 286 288 290 292 294 296 298 299 298 299 301 302 301 300 298 295 293 294 294 293 292 293 292
259 262 262 260 260 262 264 266 270 271 272 273 273 274 276 278 280 283 284 284 285 286 288 290 293 295 296 297 298 298 300 301 301 301 299 296 294 292 294 292 292 292 291
260 262 263 262 263 265 266 269 272 272 273 273 271 272 274 278 281 283 285 285 284 284 284 288 290 293 295 296 296 298 299 300 300 299 300 299 296 293 292 291 291 291 291
259 262 263 263 264 266 267 269 272 274 275 273 271 272 273 277 280 283 284 284 284 284 286 286 288 291 292 293 295 297 297 298 298 299 299 298 295 293 291 290 291 290 289
259 261 263 264 265 267 268 269 271 273 274 275 275 276 278 279 280 282 282 281 282 284 287 287 288 289 291 292 294 295 295 296 296 297 298 297 295 293 291 290 290 289 288
259 261 263 263 265 267 268 269 269 271 273 275 276 278 279 279 280 282 281 281 283 284 285 287 288 289 290 292 293 294 295 296 296 297 297 296 296 294 293 291 289 289 287
261 262 263 264 264 265 267 268 270 272 273 275 277 278 278 278 279 279 280 281 282 283 284 286 288 289 290 291 292 293 294 296 296 297 296 296 296 296 295 294 292 290 289
261 262 263 263 264 265 267 269 270 272 274 276 277 277 277 278 279 279 279 281 282 282 283 285 286 288 289 290 291 292 293 295 295 295 296 296 296 297 296 294 292 290 289
Height
5892 5892 5891 5890 5890 5889 5889 5889 5889 5889 5889 5889 5888 5888 5888 5888 5889 5889 5889 5890 5890 5890 5890 5891 5891 5891 5892 5892 5891 5891 5890 5890 5890 5889 5888 5888 5887 5886 5885 5884 5883 5882 5880
5894 5893 5893 5892 5891 5891 5891 5891 5890 5890 5890 5890 5890 5890 5889 5889 5889 5890 5890 5890 5890 5891 5891 5891 5891 5892 5891 5891 5891 5890 5890 5889 5889 5888 5887 5887 5886 5885 5883 5882 5881 5879 5878
5895 5894 5894 5894 5893 5892 5892 5892 5892 5891 5891 5891 5891 5891 5890 5890 5890 5890 5891 5891 5891 5891 5891 5891 5892 5891 5891 5891 5890 5890 5889 5888 5887 5887 5886 5885 5884 5883 5881 5880 5878 5877 5876
5896 5895 5895 5895 5894 5894 5893 5893 5893 5893 5893 5893 5892 5892 5891 5891 5891 5891 5891 5891 5891 5891 5891 5891 5891 5891 5891 5890 5889 5888 5888 5887 5886 5885 5884 5883 5882 5881 5880 5878 5876 5875 5873
5896 5896 5895 5895 5895 5895 5894 5894 5894 5894 5894 5894 5894 5893 5892 5892 5892 5891 5891 5891 5891 5891 5891 5891 5891 5890 5890 5889 5888 5887 5886 5886 5885 5884 5883 5881 5880 5879 5878 5876 5875 5873 5871
5897 5896 5896 5896 5896 5896 5896 5895 5895 5895 5895 5895 5894 5893 5893 5892 5892 5892 5892 5892 5891 5891 5891 5890 5890 5889 5889 5888 5887 5886 5885 5884 5883 5882 5881 5880 5878 5877 5875 5874 5872 5871 5869
5896 5896 5896 5896 5896 5896 5896 5896 5896 5896 5895 5895 5895 5894 5893 5893 5892 5892 5892 5892 5891 5891 5890 5889 5889 5888 5887 5886 5885 5884 5883 5882 5881 5880 5879 5877 5876 5874 5873 5871 5870 5868 5866
5896 5896 5896 5896 5896 5896 5895 5895 5895 5896 5896 5895 5895 5894 5894 5893 5893 5892 5892 5891 5891 5890 5889 5888 5888 5887 5886 5884 5884 5882 5881 5880 5879 5878 5876 5875 5873 5872 5870 5869 5867 5865 5863
5895 5895 5895 5895 5895 5895 5895 5895 5895 5895 5895 5895 5894 5894 5893 5893 5892 5892 5891 5891 5890 5889 5888 5887 5887 5885 5884 5883 5881 5880 5879 5877 5876 5874 5873 5872 5870 5868 5867 5865 5864 5862 5860
5893 5893 5894 5894 5894 5894 5894 5894 5894 5894 5894 5894 5894 5893 5892 5892 5891 5890 5890 5889 5888 5888 5887 5886 5885 5883 5882 5881 5879 5878 5876 5874 5873 5871 5870 5868 5867 5865 5864 5862 5860 5858 5856
5891 5891 5892 5892 5892 5892 5892 5893 5893 5893 5893 5893 5892 5892 5891 5890 5890 5889 5888 5887 5886 5885 5884 5883 5882 5881 5880 5878 5877 5875 5873 5871 5870 5868 5866 5864 5863 5861 5859 5858 5856 5853 5852
5887 5888 5888 5889 5889 5890 5890 5890 5891 5891 5891 5891 5890 5889 5889 5888 5887 5886 5885 5885 5884 5883 5882 5880 5880 5878 5877 5875 5874 5872 5870 5868 5866 5865 5863 5861 5859 5857 5855 5853 5851 5849 5847
5884 5884 5885 5886 5886 5887 5887 5887 5888 5888 5888 5888 5887 5887 5886 5885 5884 5883 5883 5882 5881 5880 5879 5877 5876 5875 5874 5872 5870 5869 5867 5865 5863 5861 5859 5857 5855 5853 5851 5848 5846 5844 5842
5880 5880 5881 5882 5883 5883 5883 5884 5884 5884 5884 5884 5884 5883 5883 5882 5881 5880 5879 5878 5878 5877 5875 5874 5873 5872 5870 5868 5866 5865 5863 5861 5858 5856 5854 5852 5850 5848 5845 5843 5841 5839 5837
5875 5876 5876 5877 5878 5879 5879 5879 5879 5880 5880 5880 5879 5879 5878 5878 5877 5876 5875 5874 5873 5872 5871 5870 5869 5867 5865 5864 5861 5860 5858 5855 5853 5850 5848 5846 5844 5842 5840 5837 5835 5833 5831
5870 5871 5871 5872 5873 5874 5875 5875 5875 5875 5875 5875 5875 5874 5874 5873 5873 5872 5871 5870 5869 5868 5867 5865 5864 5862 5860 5858 5856 5854 5852 5849 5847 5844 5842 5840 5838 5835 5833 5831 5829 5827 5825
5865 5865 5866 5867 5868 5868 5869 5870 5870 5870 5870 5870 5869 5869 5868 5868 5867 5867 5866 5865 5864 5863 5862 5860 5859 5857 5855 5852 5850 5847 5844 5842 5840 5838 5835 5833 5831 5828 5826 5824 5822 5820 5817
5859 5860 5860 5862 5862 5863 5863 5864 5863 5863 5864 5864 5863 5862 5862 5861 5861 5861 5861 5860 5858 5857 5855 5854 5853 5851 5848 5846 5843 5840 5838 5835 5833 5830 5828 5825 5823 5821 5819 5817 5815 5812 5810
5852 5853 5854 5855 5856 5856 5857 5857 5858 5858 5858 5858 5858 5857 5856 5856 5855 5855 5854 5852 5851 5850 5848 5847 5845 5843 5841 5839 5836 5833 5830 5828 5825 5823 5820 5817 5815 5813 5810 5808 5806 5804 5802
5845 5846 5847 5848 5849 5849 5850 5850 5851 5851 5851 5851 5851 5851 5850 5850 5849 5847 5845 5844 5843 5842 5841 5839 5838 5836 5833 5831 5828 5825 5823 5820 5818 5815 5812 5809 5807 5805 5802 5800 5798 5796 5794
5837 5838 5839 5840 5841 5841 5842 5842 5842 5842 5842 5843 5843 5842 5842 5842 5842 5840 5839 5837 5836 5834 5832 5831 5830 5827 5825 5823 5820 5818 5815 5812 5810 5807 5804 5801 5798 5796 5793 5791 5789 5787 5785
5828 5830 5831 5832 5832 5832 5833 5833 5833 5833 5833 5833 5834 5834 5834 5834 5833 5832 5831 5830 5828 5826 5824 5823 5821 5819 5817 5814 5812 5809 5806 5804 5801 5798 5795 5792 5789 5787 5784 5782 5780 5778 5776
5820 5821 5822 5822 5823 5823 5824 5824 5824 5824 5824 5824 5825 5825 5825 5824 5824 5823 5821 5820 5819 5818 5816 5814 5812 5810 5808 5805 5803 5800 5797 5795 5792 5789 5786 5783 5780 5777 5775 5773 5771 5768 5766
5810 5811 5812 5812 5813 5814 5814 5815 5815 5815 5815 5816 5816 5815 5815 5814 5813 5812 5811 5810 5809 5808 5807 5805 5803 5801 5798 5796 5793 5790 5788 5785 5783 5780 5777 5774 5771 5768 5766 5763 5761 5758 5756
5799 5800 5801 5802 5803 5804 5804 5805 5805 5805 5805 5805 5805 5805 5804 5804 5802 5801 5800 5799 5799 5797 5796 5795 5793 5791 5789 5787 5784 5781 5779 5776 5774 5771 5768 5765 5762 5759 5756 5753 5751 5748 5746
5787 5788 5790 5791 5792 5793 5794 5794 5794 5794 5794 5794 5794 5793 5793 5792 5791 5790 5790 5788 5788 5786 5785 5784 5783 5781 5779 5776 5774 5772 5769 5767 5764 5761 5758 5756 5753 5749 5746 5743 5741 5738 5736